Block Island, RI

9:12 AM EDT on August 27, 2016 (GMT -0400)
Block Island State

Weather History for KBID - January, 2014

Change the Weather History Date:

Thursday, January 2, 2014

  Actual Average Record
Temperature  
Mean Temperature 25 °F -  
Max Temperature 33 °F 39 °F 57 °F (1985)
Min Temperature 17 °F 28 °F 8 °F (1999)
Degree Days  
Heating Degree Days 40    
Moisture  
Dew Point 23 °F    
Average Humidity 76    
Maximum Humidity 87    
Minimum Humidity 55    
Precipitation  
Precipitation 0.00 in - - ()
Sea Level Pressure  
Sea Level Pressure 29.99 in    
Wind  
Wind Speed 17 mph (NE)    
Max Wind Speed 31 mph    
Max Gust Speed 45 mph    
Visibility 6 miles    
Events      
Averages and records for this station are not official NWS values.
T = Trace of Precipitation, MM = Missing Value Source: NWS Daily Summary

Daily Weather History Graph

Daily Weather History Graph

Search for Another Location

Airport or City:

Trip Planner

Search our weather history database for the weather conditions in past years. The results will help you decide how hot, cold, wet, or windy it might be!

Date:

Astronomy

Jan. 02, 2014 Rise Set
Actual Time 7:11 AM EST 4:29 PM EST
Civil Twilight 6:40 AM EST 5:00 PM EST
Nautical Twilight 6:06 AM EST 5:34 PM EST
Astronomical Twilight 5:32 AM EST 6:08 PM EST
Moon 7:49 AM EST (1/2) 6:23 PM EST (1/2)
Length of Visible Light 10h 19m
Length of Day
9h 17m
New Moon, 2% of the Moon is Illuminated
Jan 2
New Moon
Jan 7
First Quarter
Jan 15
Full
Jan 24
Last Quarter
Jan 30
New

Hourly Weather History & Observations

Time (EST) Temp. Windchill Dew Point Humidity Pressure Visibility Wind Dir Wind Speed Gust Speed Precip Events Conditions
12:15 AM 30.2 °F 21.9 °F 15.8 °F 55% 30.29 in 10.0 mi NE 9.2 mph - N/A   Overcast
12:35 AM 30.2 °F 21.3 °F 15.8 °F 55% 30.29 in 10.0 mi NE 10.4 mph - N/A   Overcast
12:55 AM 30.2 °F 21.3 °F 17.6 °F 60% 30.28 in 10.0 mi NE 10.4 mph 16.1 mph N/A   Overcast
1:15 AM 30.2 °F 20.8 °F 17.6 °F 60% 30.28 in 10.0 mi NE 11.5 mph - N/A   Overcast
1:35 AM 30.2 °F 20.2 °F 17.6 °F 60% 30.28 in 10.0 mi ENE 12.7 mph - N/A   Overcast
1:55 AM 30.2 °F 21.9 °F 17.6 °F 60% 30.28 in 10.0 mi ENE 9.2 mph 18.4 mph N/A   Overcast
2:15 AM 30.2 °F 20.2 °F 17.6 °F 60% 30.28 in 10.0 mi ENE 12.7 mph 19.6 mph N/A   Overcast
2:35 AM 30.2 °F 18.9 °F 17.6 °F 60% 30.27 in 10.0 mi ENE 16.1 mph 23.0 mph N/A   Overcast
2:55 AM 30.2 °F 19.8 °F 19.4 °F 64% 30.26 in 10.0 mi ENE 13.8 mph 20.7 mph N/A   Overcast
3:15 AM 30.2 °F 20.2 °F 19.4 °F 64% 30.25 in 10.0 mi ENE 12.7 mph 18.4 mph N/A   Overcast
3:35 AM 30.2 °F 19.3 °F 19.4 °F 64% 30.23 in 10.0 mi ENE 15.0 mph 21.9 mph N/A   Overcast
3:55 AM 30.2 °F 20.2 °F 19.4 °F 64% 30.22 in 10.0 mi ENE 12.7 mph 19.6 mph N/A   Overcast
4:15 AM 30.2 °F 18.9 °F 21.2 °F 69% 30.21 in 10.0 mi ENE 16.1 mph 21.9 mph N/A   Overcast
4:35 AM 28.4 °F 15.4 °F 21.2 °F 74% 30.20 in 10.0 mi ENE 19.6 mph 24.2 mph N/A   Overcast
4:55 AM 28.4 °F 17.0 °F 21.2 °F 74% 30.20 in 10.0 mi ENE 15.0 mph 26.5 mph N/A   Overcast
5:15 AM 30.2 °F 18.5 °F 19.4 °F 64% 30.19 in 10.0 mi East 17.3 mph 24.2 mph N/A   Overcast
5:35 AM 28.4 °F 15.8 °F 21.2 °F 74% 30.19 in 10.0 mi ENE 18.4 mph 25.3 mph N/A   Overcast
5:55 AM 30.2 °F 19.3 °F 21.2 °F 69% 30.18 in 10.0 mi ENE 15.0 mph 26.5 mph N/A   Overcast
6:15 AM 30.2 °F 18.5 °F 21.2 °F 69% 30.18 in 10.0 mi ENE 17.3 mph 24.2 mph N/A   Overcast
6:35 AM 30.2 °F 17.8 °F 21.2 °F 69% 30.17 in 10.0 mi ENE 19.6 mph 26.5 mph N/A   Overcast
6:55 AM 30.2 °F 18.5 °F 21.2 °F 69% 30.17 in 10.0 mi ENE 17.3 mph 25.3 mph N/A   Overcast
7:15 AM 30.2 °F 17.8 °F 23.0 °F 75% 30.17 in 10.0 mi ENE 19.6 mph 27.6 mph N/A   Overcast
7:35 AM 30.2 °F 18.5 °F 23.0 °F 75% 30.15 in 10.0 mi ENE 17.3 mph 27.6 mph N/A   Overcast
7:55 AM 30.2 °F 17.4 °F 24.8 °F 80% 30.15 in 5.0 mi ENE 20.7 mph 31.1 mph N/A   Overcast
8:15 AM 30.2 °F 18.1 °F 24.8 °F 80% 30.14 in 2.5 mi ENE 18.4 mph 29.9 mph N/A   Overcast
8:35 AM 30.2 °F 18.1 °F 24.8 °F 80% 30.14 in 2.5 mi ENE 18.4 mph 27.6 mph N/A   Overcast
8:55 AM 30.2 °F 17.1 °F 24.8 °F 80% 30.14 in 1.8 mi ENE 21.9 mph 31.1 mph N/A   Overcast
9:15 AM 30.2 °F 17.1 °F 26.6 °F 86% 30.12 in 1.5 mi ENE 21.9 mph 27.6 mph N/A   Overcast
9:35 AM 30.2 °F 18.1 °F 24.8 °F 80% 30.12 in 3.0 mi NE 18.4 mph 26.5 mph N/A   Overcast
9:55 AM 30.2 °F 17.8 °F 26.6 °F 86% 30.11 in 1.8 mi NE 19.6 mph 26.5 mph N/A   Overcast
10:15 AM 30.2 °F 18.5 °F 26.6 °F 86% 30.08 in 1.2 mi NE 17.3 mph 28.8 mph N/A   Overcast
10:35 AM 30.2 °F 18.5 °F 26.6 °F 86% 30.06 in 1.8 mi NE 17.3 mph 27.6 mph N/A   Overcast
10:55 AM 32.0 °F 19.2 °F 26.6 °F 80% 30.04 in 1.2 mi ENE 23.0 mph 29.9 mph N/A   Overcast
11:15 AM 32.0 °F 20.8 °F 26.6 °F 80% 30.04 in 1.2 mi NE 17.3 mph 27.6 mph N/A   Overcast
11:35 AM 30.2 °F 17.4 °F 26.6 °F 86% 30.02 in 1.5 mi ENE 20.7 mph 29.9 mph N/A   Overcast
11:55 AM 32.0 °F 20.8 °F 26.6 °F 80% 29.99 in 2.0 mi ENE 17.3 mph 28.8 mph N/A   Overcast
12:15 PM 32.0 °F 19.8 °F 26.6 °F 80% 29.97 in 2.0 mi NE 20.7 mph 32.2 mph N/A   Overcast
12:35 PM 32.0 °F 20.1 °F 26.6 °F 80% 29.95 in 2.0 mi NE 19.6 mph 28.8 mph N/A   Overcast
12:55 PM 32.0 °F 20.1 °F 28.4 °F 87% 29.94 in 2.0 mi ENE 19.6 mph 27.6 mph N/A   Overcast
1:15 PM 32.0 °F 18.9 °F 28.4 °F 87% 29.92 in 3.0 mi ENE 24.2 mph 29.9 mph N/A   Overcast
1:35 PM 32.0 °F 19.5 °F 28.4 °F 87% 29.91 in 3.0 mi ENE 21.9 mph 34.5 mph N/A   Overcast
1:55 PM 33.8 °F 22.8 °F 28.4 °F 81% 29.91 in 2.5 mi NE 18.4 mph 29.9 mph N/A   Overcast
2:15 PM 32.0 °F 19.8 °F 28.4 °F 87% 29.90 in 2.5 mi NE 20.7 mph 34.5 mph N/A   Overcast
2:35 PM 33.8 °F 20.8 °F 28.4 °F 81% 29.88 in 5.0 mi ENE 26.5 mph 35.7 mph N/A   Overcast
2:55 PM 33.8 °F 21.6 °F 28.4 °F 81% 29.87 in 4.0 mi NE 23.0 mph 34.5 mph N/A   Overcast
3:15 PM 33.8 °F 21.0 °F 28.4 °F 81% 29.87 in 4.0 mi ENE 25.3 mph 36.8 mph N/A   Overcast
3:35 PM 33.8 °F 20.8 °F 28.4 °F 81% 29.85 in 5.0 mi ENE 26.5 mph 35.7 mph N/A   Overcast
3:55 PM 33.8 °F 20.8 °F 26.6 °F 75% 29.85 in 3.0 mi ENE 26.5 mph 35.7 mph N/A   Overcast
4:15 PM 33.8 °F 21.0 °F 26.6 °F 75% 29.85 in 5.0 mi ENE 25.3 mph 36.8 mph N/A   Overcast
4:35 PM 33.8 °F 21.6 °F 26.6 °F 75% 29.84 in 5.0 mi ENE 23.0 mph 38.0 mph N/A   Overcast
4:55 PM 32.0 °F 17.4 °F 26.6 °F 80% 29.81 in 10.0 mi NE 31.1 mph 44.9 mph N/A   Overcast
5:15 PM 32.0 °F 18.4 °F 26.6 °F 80% 29.82 in 8.0 mi ENE 26.5 mph 40.3 mph N/A   Overcast
5:35 PM 32.0 °F 17.9 °F 24.8 °F 75% 29.81 in 8.0 mi NE 28.8 mph 36.8 mph N/A   Overcast
5:55 PM 32.0 °F 18.4 °F 24.8 °F 75% 29.80 in 10.0 mi NE 26.5 mph 40.3 mph N/A   Overcast
6:15 PM 30.2 °F 15.4 °F 24.8 °F 80% 29.80 in 8.0 mi NE 28.8 mph 35.7 mph N/A   Overcast
6:35 PM 30.2 °F 16.2 °F 24.8 °F 80% 29.79 in 7.0 mi NE 25.3 mph 42.6 mph N/A   Overcast
6:55 PM 30.2 °F 15.7 °F 24.8 °F 80% 29.80 in 9.0 mi NE 27.6 mph 39.1 mph N/A   Overcast
7:15 PM 30.2 °F 15.7 °F 24.8 °F 80% 29.78 in 9.0 mi NE 27.6 mph 42.6 mph N/A   Overcast
7:35 PM 30.2 °F 15.9 °F 24.8 °F 80% 29.78 in 9.0 mi ENE 26.5 mph 40.3 mph N/A   Overcast
7:55 PM 30.2 °F 15.7 °F 24.8 °F 80% 29.75 in 10.0 mi ENE 27.6 mph 38.0 mph N/A   Overcast
8:15 PM 30.2 °F 15.4 °F 24.8 °F 80% 29.74 in 5.0 mi ENE 28.8 mph 39.1 mph N/A   Overcast
8:35 PM 30.2 °F 16.2 °F 24.8 °F 80% 29.72 in 1.5 mi NE 25.3 mph 40.3 mph N/A   Overcast
8:55 PM 30.2 °F 16.2 °F 24.8 °F 80% 29.72 in 1.2 mi NE 25.3 mph 39.1 mph N/A   Overcast
9:15 PM 30.2 °F 15.4 °F 24.8 °F 80% 29.70 in 1.0 mi ENE 28.8 mph 36.8 mph N/A   Overcast
9:35 PM 28.4 °F 14.1 °F 24.8 °F 86% 29.68 in 0.5 mi NE 24.2 mph 39.1 mph N/A   Overcast
9:55 PM 26.6 °F 12.7 °F 21.2 °F 80% 29.67 in 1.0 mi NNE 20.7 mph 29.9 mph N/A   Overcast
10:15 PM 23.0 °F 7.6 °F 17.6 °F 80% 29.66 in 1.0 mi NNE 21.9 mph 31.1 mph N/A   Overcast
10:35 PM 21.2 °F 6.0 °F 17.6 °F 86% 29.67 in 1.0 mi NNE 19.6 mph 32.2 mph N/A   Overcast
10:55 PM 19.4 °F 3.2 °F 14.0 °F 80% 29.65 in 1.2 mi NNE 20.7 mph 32.2 mph N/A   Overcast
11:15 PM 19.4 °F 2.1 °F 14.0 °F 80% 29.64 in 1.0 mi NNE 24.2 mph 29.9 mph N/A   Overcast
11:35 PM 17.6 °F 1.7 °F 12.2 °F 79% 29.65 in 1.0 mi NNE 18.4 mph 31.1 mph N/A   Overcast
11:55 PM 17.6 °F 1.7 °F 10.4 °F 73% 29.63 in 1.0 mi NNE 18.4 mph 31.1 mph N/A   Overcast